Cincinnati, OH

5:43 PM EDT on March 23, 2017 (GMT -0400)
Cincinnati Municipal-Lunken

Weather History for KLUK - July, 2014

Change the Weather History Date:

Tuesday, July 22, 2014

  Actual Average Record
Temperature  
Mean Temperature 78 °F -  
Max Temperature 91 °F 86 °F 100 °F (1999)
Min Temperature 64 °F 67 °F 33 °F (1996)
Cooling Degree Days 12    
Growing Degree Days 28 (Base 50)    
Moisture  
Dew Point 67 °F    
Average Humidity 85    
Maximum Humidity 100    
Minimum Humidity 42    
Precipitation  
Precipitation 0.00 in - - ()
Sea Level Pressure  
Sea Level Pressure 30.08 in    
Wind  
Wind Speed 1 mph (WSW)    
Max Wind Speed 10 mph    
Max Gust Speed -    
Visibility 5 miles    
Events Fog    
Averages and records for this station are not official NWS values.
T = Trace of Precipitation, MM = Missing Value Source: NWS Daily Summary

Daily Weather History Graph

Daily Weather History Graph

Search for Another Location

Airport or City:

Trip Planner

Search our weather history database for the weather conditions in past years. The results will help you decide how hot, cold, wet, or windy it might be!

Date:

Astronomy

Jul. 22, 2014 Rise Set
Actual Time 6:29 AM EDT 8:58 PM EDT
Civil Twilight 5:58 AM EDT 9:28 PM EDT
Nautical Twilight 5:20 AM EDT 10:06 PM EDT
Astronomical Twilight 4:38 AM EDT 10:48 PM EDT
Moon 3:01 AM EDT (7/22) 5:35 PM EDT (7/22)
Length of Visible Light 15h 29m
Length of Day
14h 28m
Waning Crescent, 16% of the Moon is Illuminated
Jul 22
Waning Crescent
Jul 26
New
Aug 3
First Quarter
Aug 10
Full
Aug 17
Last Quarter

Hourly Weather History & Observations

Time (EDT) Temp. Heat Index Dew Point Humidity Pressure Visibility Wind Dir Wind Speed Gust Speed Precip Events Conditions
12:53 AM 68.0 °F - 68.0 °F 100% 30.09 in 5.0 mi Calm Calm - N/A   Clear
1:53 AM 68.0 °F - 68.0 °F 100% 30.09 in 5.0 mi Calm Calm - N/A   Clear
2:46 AM 66.9 °F - 66.0 °F 97% 30.09 in 1.8 mi Calm Calm - N/A   Clear
2:53 AM 66.9 °F - 66.9 °F 100% 30.08 in 2.0 mi Calm Calm - N/A   Clear
3:01 AM 66.9 °F - 66.9 °F 100% 30.09 in 4.0 mi Calm Calm - N/A   Clear
3:24 AM 66.9 °F - 66.0 °F 97% 30.09 in 1.5 mi Calm Calm - N/A   Clear
3:34 AM 66.9 °F - 66.9 °F 100% 30.09 in 0.5 mi Calm Calm - N/A Fog Fog
3:47 AM 66.2 °F - 66.2 °F 100% 30.09 in 2.0 mi Calm Calm - N/A   Clear
3:53 AM 66.9 °F - 66.9 °F 100% 30.08 in 1.0 mi Calm Calm - N/A   Clear
4:00 AM 66.9 °F - 66.9 °F 100% 30.09 in 0.5 mi Calm Calm - N/A Fog Fog
4:08 AM 66.9 °F - 66.0 °F 97% 30.09 in 2.5 mi Calm Calm - N/A   Clear
4:15 AM 66.9 °F - 66.9 °F 100% 30.09 in 4.0 mi Calm Calm - N/A   Clear
4:35 AM 66.9 °F - 66.0 °F 97% 30.09 in 1.5 mi Calm Calm - N/A   Clear
4:45 AM 66.2 °F - 66.2 °F 100% 30.09 in 0.8 mi Calm Calm - N/A   Clear
4:50 AM 66.2 °F - 66.2 °F 100% 30.09 in 2.0 mi Calm Calm - N/A   Clear
4:53 AM 66.0 °F - 66.0 °F 100% 30.08 in 3.0 mi Calm Calm - N/A   Clear
5:44 AM 66.0 °F - 64.9 °F 96% 30.10 in 2.0 mi Calm Calm - N/A   Clear
5:50 AM 66.2 °F - 66.2 °F 100% 30.10 in 1.5 mi Calm Calm - N/A   Scattered Clouds
5:53 AM 66.0 °F - 66.0 °F 100% 30.09 in 0.5 mi Calm Calm - N/A Fog Fog
6:04 AM 64.9 °F - 64.9 °F 100% 30.11 in 1.5 mi Calm Calm - N/A   Scattered Clouds
6:12 AM 66.0 °F - 64.9 °F 96% 30.11 in 3.0 mi Calm Calm - N/A   Scattered Clouds
6:24 AM 66.0 °F - 66.0 °F 100% 30.11 in 2.0 mi Calm Calm - N/A   Partly Cloudy
6:34 AM 66.0 °F - 64.9 °F 96% 30.12 in 0.8 mi Calm Calm - N/A   Clear
6:44 AM 66.0 °F - 64.9 °F 96% 30.12 in 2.0 mi Calm Calm - N/A   Clear
6:53 AM 66.0 °F - 66.0 °F 100% 30.11 in 5.0 mi Calm Calm - N/A Fog Patches of Fog
7:53 AM 70.0 °F - 68.0 °F 93% 30.12 in 5.0 mi Calm Calm - N/A Fog Patches of Fog
8:53 AM 73.9 °F - 69.1 °F 85% 30.12 in 7.0 mi Calm Calm - N/A   Scattered Clouds
9:53 AM 78.8 °F - 71.6 °F 78% 30.12 in 10.0 mi Calm Calm - N/A   Clear
10:53 AM 82.9 °F 88.0 °F 72.0 °F 69% 30.10 in 10.0 mi Calm Calm - N/A   Clear
11:53 AM 86.0 °F 91.5 °F 71.1 °F 61% 30.08 in 10.0 mi Calm Calm - N/A   Clear
12:53 PM 87.1 °F 92.0 °F 70.0 °F 57% 30.07 in 10.0 mi Variable 3.5 mph - N/A   Scattered Clouds
1:53 PM 90.0 °F 92.4 °F 66.0 °F 45% 30.06 in 10.0 mi Variable 6.9 mph - N/A   Partly Cloudy
2:53 PM 91.0 °F 93.0 °F 64.9 °F 42% 30.05 in 10.0 mi WSW 8.1 mph - N/A   Partly Cloudy
3:53 PM 90.0 °F 92.8 °F 66.9 °F 46% 30.03 in 10.0 mi West 10.4 mph - N/A   Scattered Clouds
4:53 PM 91.0 °F 95.2 °F 68.0 °F 47% 30.02 in 10.0 mi West 6.9 mph - N/A   Scattered Clouds
5:53 PM 90.0 °F 92.8 °F 66.9 °F 46% 30.01 in 10.0 mi SW 5.8 mph - N/A   Partly Cloudy
6:53 PM 89.1 °F 92.1 °F 66.9 °F 48% 30.01 in 10.0 mi West 9.2 mph - N/A   Clear
7:53 PM 86.0 °F 89.4 °F 68.0 °F 55% 30.01 in 10.0 mi West 4.6 mph - N/A   Clear
8:53 PM 80.1 °F 83.6 °F 71.1 °F 74% 30.01 in 10.0 mi South 3.5 mph - N/A   Clear
9:53 PM 75.0 °F - 70.0 °F 84% 30.02 in 10.0 mi Calm Calm - N/A   Clear
10:53 PM 73.0 °F - 69.1 °F 87% 30.03 in 10.0 mi Calm Calm - N/A   Clear
11:53 PM 72.0 °F - 69.1 °F 91% 30.02 in 10.0 mi Calm Calm - N/A   Clear